Terminal Aerodrome Forecast
Issued by NWS Springfield, MO

Home | Current Version | Previous Version | Text Only | Print | Product List | Glossary On
Versions: 1 2 3 4 5 6 7 8 9 10 11 12 13 14 15 16 17 18 19 20 21 22 23 24 25 26 27 28 29
000
FTUS43 KSGF 301700
TAFSGF
TAF
KSGF 301721Z 3018/3118 24009KT P6SM VCSH FEW030 SCT050
     FM302000 19008KT P6SM VCSH SCT040 SCT080
     FM310200 16005KT P6SM SCT080
     FM311300 19008KT 6SM BR SKC
     FM311600 19010KT P6SM SKC=

USA.gov is the U.S. government's official web portal to all federal, state and local government web resources and services.